Погода в Любашевке

Погода в Любашевке : погода сейчас, прогноз погоды и архив. Всё, что Вы хотите узнать о погоде в Любашевке!

Хотите узнать прогноз погоды в Любашевке? Тогда Вам сюда: Погода в Любашевке

Поиск расширенной информации на нашем сайте:

Другие новости

Новости СМИ2

Главная страница сайта

Новости сайта

03.07.2017

Напоминаем, что на нашем специализированном сайте Метеоцентр.Азия вы можете получить высокодетализированные автоматические прогнозы погоды по пунктам России, СНГ и мира в авиационном формате (включающие направление и скорость ветра, видимость, явления погоды, количество и форму облачности, нижнюю и верхнюю границу облачности).


Погода в Любашевке - сегодня

Время (UTC), дата Ветер
(°,м/с) 
Видим.   Явления Облачность Т
(°С)
Тd
(°С)
f(%) Тe
(°С)
Pmin
(гПа)
dP
(гПа)
Po
(мм)
O2
(г/м3)
Тmin Tmax R s Состояние
почвы
18 17.02.18 тихо ()   10 км    ясно 
-2 -3.8 87 -2  1024.9  0.2  751  305           
21 17.02.18 260 (З) 10 км    ясно 
-1.5 -4.2 82 -2  1024.5  -0.4  751  305           
00 18.02.18 280 (З) 4000 м  дымка  ясно 
-4.2 -5.5 91 -4  1024.3  -0.4  751  308           
03 18.02.18 тихо ()   4000 м  дымка  ясно 
-3.6 -4.9 91 -4  1023.7  -0.5  750  307        996   
06 18.02.18 тихо ()   6000 м  дымка  10/0 средняя, верхняя 
[Ac cast|Cc]
-3.4 -4.3 93 -3  1024  0.3  751  307  -4.2      мокрый или
старый снег
10-40% 
09 18.02.18 тихо ()   20000 м    10/0 средняя 
[As op]
+0.5 -2.4 81 +1  1023.8  0.1  751  302           
12 18.02.18 290 (З) 20000 м    10/6 1000 м средняя 
[Cu med, cong|Ac cast]
+2.7 -2.6 68 +2  1023  -0.6  750  300           
15 18.02.18 340 (С) 20000 м    10/0 средняя 
[Ac und]
+0.7 -2.5 79 +1  1023.1  750  302        597   
18 18.02.18 250 (З) 20000 м    10/0 средняя 
[Ac und]
+0.3 -3.4 76 +1  1023.6  0.4  750  302           
21 18.02.18 300 (СЗ) 20000 м    10/0 средняя 
[Ac und]
-0.2 -2.3 86 -1  1023.6  750  303           
00 19.02.18 290 (З) 4000 м  дымка  10/0 средняя 
[Ac und]
-0.9 -1.8 94 -2  1023.7  750  304           
03 19.02.18 300 (СЗ) 4000 м  дымка  10/10 420 м 
[St]
-1.1 -2 94 -3  1023.8  0.1  751  304           
06 19.02.18 340 (С) 20000 м    9/9 600 м 
[Cu Sc]
-2 -4.7 82 -5  1025.3  1.4  752  306  -2.1  -10.2    мокрый или
старый снег
10-40% 
09 19.02.18 330 (СЗ) 20000 м    8/8 600 м кучево-дожд. 
[Cb calv]
-1.7 -7.2 66 -4  1026.2  0.9  752  306           
12 19.02.18 330 (СЗ) 20000 м    10/0 средняя 
[Ac cast]
-1.8 -6.2 72 -4  1026  0.2  752  306           
15 19.02.18 340 (С) 20000 м    ясно 
-2.1 -6.8 70 -4  1026.2  0.2  752  306           
18 19.02.18 350 (С) 20000 м    ясно 
-4.1 -6.9 81 -5  1026.8  0.4  753  309           
21 19.02.18 340 (С) 10 км    ясно 
-5.8 -7.7 86 -5  1026.6  -0.4  752  310           
00 20.02.18 340 (С) 10 км    ясно 
-6.4 -8.2 87 -8  1026.8  0.2  752  311           
03 20.02.18 150 (ЮВ) 4000 м  дымка  10/0 средняя 
[Ac und]
-0.8 -0.8 100 -3    -1.8             
06 20.02.18 200 (Ю) 0200 м  туман  ?/?  
-1.4 -1.4 100 -3  1012.9  0.2  743  301  -1.5      11  мокрый или
старый снег
50-90% 
09 20.02.18 100 (В) 20000 м    3/0 верхняя 
[Ci fib]
-0.8 -5.8 69 -2  1026.2  0.1  752  305           
12 20.02.18 120 (ЮВ) 20000 м    8/8 1000 м 
[Cu hum]
+1 -6.4 58 1024.9  -1.2  751  302           
15 20.02.18 070 (В) 20000 м    6/3 600 м средняя 
[Sc|Ac und]
+0.4 -5.6 64 1024.1  -0.8  751  303           
18 20.02.18 070 (В) 20000 м    ясно 
-2.2 -5.1 80 -2  1024.7  0.4  751  306    +2.2       
Время (UTC), дата Ветер
(°,м/с) 
Видим.   Явления Облачность Т
(°С)
Тd
(°С)
f(%) Тe
(°С)
Pmin
(гПа)
dP
(гПа)
Po
(мм)
O2
(г/м3)
Тmin Tmax R s Состояние
почвы

Для получения пояснительной информации подведите курсор к названию столбца.

ПОГОДА в Любашевке - архив

Всё, что Вы хотите узнать о погоде в Любашевке - удобно и подробно!

Выберите нужную дату (начиная с 1 января 2015* года) и нажмите кнопку "Найти".
Будут отображены архивные сводки погоды по пункту Любашевка, начиная с указанной даты.


Отображать данные в формате CSV (для использования в таблицах Excel)


Внимание! Наш архив погоды предназначен исключительно для личного некоммерческого использования в познавательных целях. Если Вам необходимы официальные справки о состоянии погоды (для производственных, юридических, коммерческих и т.п. целей), обращайтесь в органы Росгидромета.

*Примечание: данная дата относится к архиву по метеостанциям СССР (Россия, СНГ, Балтия).
Архив по метеостанциям Зарубежной Европы и Азии (кроме Китая) хранится 10 дней, по другим регионам земного шара (Китай, Африка, Америка, Австралия, Океания) - 1 день.

Любашевка - район местоположения метеостанции


Название, широта, долгота, высота метеостанции:
Любашевка 47.9°ш. 30.3°д. 183 м над ур. моря [Украина]

Дополнительная информация

В oтличие oт бoльшинства пoгoдных сайтoв мы публикуем пoдрoбную метеoинфoрмацию в детальнoм прoфессиoнальнoм фoрмате.

Характеристики температуры и влажнoсти вoздуха измеряются на высoте 2 м в тени вдали oт зданий и деревьев.
Скoрoсть ветра измеряется на высoте 10 м (на урoвне рoста челoвека скoрoсть ветра ниже в 1.5-2 раза). Если метеoстанция нахoдится в гoрoде или в лесу, тo скoрoсть ветра занижена на 2-4 м/с пo сравнению с oткрытым местoм. Скoрoсть ветра над акватoриями крупных рек и oзёр, а также на вершинах хoлмoв на 2-5 м/с выше, чем в oбычных услoвиях.
Атмoсфернoе давление в разных тoчках местнoсти мoжет значительнo oтличаться oт давления на метеoстанции, в зависимoсти oт услoвий рельефа (при пoдъёме на 10 м давление пoнижается примернo на 1 мм рт.ст.).